This demonstration page uses our WeatherBlox Daily Observations layout. Learn more.

Left ArrowRight Arrow

39.29038, -76.61219

Hourly Observations for August 10, 2022

Temp ( °F °C ) Dew Point ( °F °C ) Humidity (%) Winds ( mph kmh ) Pressure ( in mb ) Visibility ( mi km ) Precip ( " mm )
12:54 am 00:54 Partly Cloudy 77 25 73 22.8 88 88 NNW 6 9 30.01 1016 10 16 0.00 0.00
1:54 am 01:54 Mostly Clear 77 25 73 22.8 88 88 WNW 3 6 30.01 1016 10 16 0.00 0.00
2:54 am 02:54 Mostly Clear 77 25 73 22.8 88 88 Calm 30.01 1016 10 16 0.00 0.00
3:54 am 03:54 Mostly Cloudy 76 24.4 73 22.8 91 91 WNW 3 6 30.02 1017 10 16 0.00 0.00
4:54 am 04:54 Mostly Cloudy 77 25 73 22.8 88 88 Calm 30.02 1017 10 16 0.00 0.00
5:54 am 05:54 Mostly Clear 75 23.9 72 22.2 90 90 Calm 30.02 1017 10 16 0.00 0.00
6:54 am 06:54 Partly Cloudy 76 24.4 73 22.8 91 91 NW 6 9 30.05 1018 10 16 0.00 0.00
7:54 am 07:54 Mostly Sunny 81 27.2 73 22.8 77 77 Calm 30.06 1018 10 16 0.00 0.00
8:54 am 08:54 Partly Cloudy 83 28.3 72 22.2 70 70 VRB 5 7 30.06 1018 10 16 0.00 0.00
9:54 am 09:54 Mostly Sunny 85 29.4 71 21.7 63 63 VRB 3 6 30.06 1018 10 16 0.00 0.00
10:54 am 10:54 Partly Cloudy 87 30.6 72 22.2 61 61 VRB 7 11 30.07 1018 10 16 0.00 0.00
11:54 am 11:54 Partly Cloudy 89 31.7 73 22.8 59 59 W 6 9 30.06 1018 10 16 0.00 0.00
12:54 pm 12:54 Mostly Cloudy 91 32.8 73 22.8 56 56 N 8 13 30.04 1017 10 16 0.00 0.00
1:54 pm 13:54 Mostly Cloudy 90 32.2 72 22.2 56 56 VRB 6 9 30.02 1017 10 16 0.00 0.00
2:54 pm 14:54 Mostly Cloudy 93 33.9 71 21.7 49 49 VRB 6 9 29.98 1015 10 16 0.00 0.00
3:54 pm 15:54 Mostly Cloudy 89 31.7 73 22.8 59 59 E 9 15 29.97 1015 10 16 0.00 0.00
4:25 pm 16:25 Mostly Cloudy 90 32.2 73 22.8 58 58 E 12 19 29.96 1015 10 16 0.00 0.00
4:54 pm 16:54 Mostly Cloudy 88 31.1 72 22.2 59 59 E 9 15 29.96 1014 10 16 0.00 0.00
5:09 pm 17:09 Mostly Cloudy with Thunderstorms 88 31.1 72 22.2 59 59 ESE 8 13 29.95 1014 10 16 0.00 0.00
5:31 pm 17:31 Mostly Cloudy with Thunderstorms 85 29.4 72 22.2 65 65 SW 21 33 29.98 1015 10 16 0.00 0.00
5:40 pm 17:40 Mostly Cloudy with Thunderstorms 78 25.6 70 21.1 76 76 SW 22 35 29.97 1015 7 11 0.00 0.00
5:46 pm 17:46 Mostly Cloudy with Thunderstorms 77 25 70 21.1 79 79 SW 12 19 30.00 1016 6 10 0.01 0.13
5:54 pm 17:54 Cloudy with Thunderstorms 75 23.9 70 21.1 84 84 WNW 8 13 30.01 1016 3 5 0.01 0.13
6:01 pm 18:01 Cloudy with Thunderstorms 75 23.9 71 21.7 88 88 WSW 9 15 30.01 1016 3 4 0.01 0.25
6:06 pm 18:06 Cloudy with Strong Thunderstorms 74 23.3 71 21.7 91 91 SW 7 11 30.01 1016 1 1 0.15 3.81
6:14 pm 18:14 Cloudy with Strong Thunderstorms 74 23.3 71 21.7 91 91 SW 13 20 30.00 1016 1 2 0.47 11.94
6:20 pm 18:20 Cloudy with Thunderstorms 74 23.3 71 21.7 91 91 SW 9 15 30.00 1016 3 5 0.52 13.21
6:54 pm 18:54 Cloudy with Thunderstorms 73 22.8 70 21.1 90 90 SW 10 17 30.01 1016 5 8 0.57 14.48
7:24 pm 19:24 Cloudy with Thunderstorms 73 22.8 69 20.6 87 87 W 7 11 30.00 1016 4 6 0.06 1.52
7:54 pm 19:54 Cloudy with Light Rain 74 23.3 71 21.7 91 91 VRB 5 7 30.01 1016 5 8 0.13 3.30
8:54 pm 20:54 Mostly Cloudy with Light Rain 73 22.8 71 21.7 94 94 W 5 7 29.99 1016 6 10 0.09 2.29
9:54 pm 21:54 Cloudy 74 23.3 72 22.2 94 94 VRB 6 9 30.00 1016 10 16 0.02 0.51
10:54 pm 22:54 Mostly Cloudy 74 23.3 71 21.7 91 91 WSW 6 9 30.00 1016 10 16 0.00 0.00
11:54 pm 23:54 Mostly Cloudy 74 23.3 71 21.7 91 91 SW 5 7 29.99 1016 10 16 0.00 0.00

Powered by AerisWeather